Location: Shepherdstown, WV
(39.4326°N, 77.8042°W)
Time: 19:30:36
(UTC-04:00)

Vanguard 3 - Pass Details

Date: 01 August 2021
Orbit: 510 x 3260 km, 33.3° (Epoch: 22 September)

Event Time Altitude Azimuth Distance (km) Brightness Sun altitude
Rises 23:44:39 0° 279° (W) 6,911 12.3 -28.6°
Reaches altitude 10° 23:49:10 10° 276° (W) 6,060 11.9 -29.0°
Maximum altitude 00:08:07 55° 206° (SSW) 3,555 10.0 -30.4°
Enters shadow 00:13:33 45° 164° (SSE) 3,671 9.9 -30.7°
